Wind_Speed
16 16 16 15 15 15 15 15 15 15 15 15 15 15 16 16 17 18 19 20 21 22 23 24 25 26 28 29 30 30 30 30 30 31 32 33 35 36 36 36 36 36 35 35 35 35 35 34 32 31 29 27 26 25 23 22 19 16 16 14 14 14 13 11 10 10 10 8 6 6 7 8 10 11 12 16 18 20 22 24 25 26 27 27 24 21 19 19
16 16 16 16 16 16 16 16 16 16 16 16 16 16 16 16 17 17 18 19 20 21 22 23 24 25 27 28 30 30 31 31 31 31 32 33 34 36 36 37 37 36 36 36 35 36 35 35 34 33 31 29 28 26 25 23 20 18 18 16 15 16 15 13 12 11 11 9 6 5 6 6 7 9 11 14 16 18 20 22 24 25 26 27 25 22 20 19
16 16 16 16 17 17 17 17 17 17 17 17 17 16 16 16 16 17 17 18 18 19 21 22 23 25 26 27 29 30 31 31 32 32 32 33 34 35 36 37 37 37 37 36 36 35 36 36 36 35 33 31 30 28 27 25 21 20 19 18 17 17 15 14 13 12 11 10 7 4 5 5 6 8 9 12 14 17 19 20 22 24 24 26 25 23 21 19
17 17 17 17 17 17 17 17 17 18 18 18 18 18 17 17 17 16 17 17 18 18 19 20 22 23 25 26 28 29 30 32 32 32 32 33 34 35 36 37 37 37 38 37 37 36 36 37 37 36 35 33 32 30 29 26 23 23 22 20 18 17 16 15 14 13 12 10 8 5 4 3 4 6 8 10 12 14 17 18 20 22 23 24 25 24 22 20
17 17 18 18 18 18 18 18 18 19 19 19 19 19 18 18 17 17 17 17 17 17 18 19 20 22 24 25 27 28 29 31 32 33 33 33 34 34 35 36 37 38 38 38 38 37 37 38 38 38 37 35 34 32 31 29 26 25 24 22 20 19 17 16 16 14 13 12 9 6 4 3 3 5 7 8 11 12 15 16 18 21 21 23 24 24 23 22
18 18 18 19 19 18 18 19 19 19 20 20 20 20 20 20 19 18 18 17 17 17 18 18 19 20 22 24 25 27 28 30 32 33 33 34 34 34 35 35 36 37 38 39 39 39 39 39 39 39 38 37 36 34 33 31 29 27 26 25 23 21 19 18 17 16 14 13 10 8 6 4 2 4 6 6 8 9 12 15 16 19 20 21 23 23 23 23
18 18 19 19 20 20 19 20 20 20 21 21 21 21 21 21 21 20 19 18 18 18 18 18 18 19 21 22 24 26 27 29 31 32 33 34 35 35 35 35 36 37 38 39 39 40 40 40 39 39 39 39 38 36 35 34 32 31 29 27 25 23 21 20 19 17 15 14 12 10 8 6 3 2 5 5 6 7 10 12 14 16 18 19 21 22 23 23
19 19 20 20 20 21 21 21 21 21 22 22 22 22 22 22 22 22 21 20 20 19 18 18 19 19 20 21 22 24 26 27 29 31 32 33 34 35 36 36 36 37 37 39 39 40 41 41 40 40 40 40 39 38 37 36 35 33 32 29 27 25 23 22 21 18 17 16 13 11 10 8 6 3 4 5 4 5 7 9 12 14 16 17 18 20 21 22
20 20 21 21 21 21 22 22 22 22 23 23 23 23 23 23 23 23 23 22 22 21 20 19 19 20 20 21 21 22 24 26 28 29 31 33 34 35 35 36 36 37 37 38 39 40 41 41 41 41 41 41 40 40 38 37 36 35 33 31 30 28 26 24 23 20 19 17 15 13 12 11 8 6 5 5 4 3 4 6 9 11 13 14 15 18 20 21
21 21 22 22 22 22 23 23 23 23 23 24 24 24 24 23 23 24 24 24 23 22 21 21 20 21 21 21 21 22 23 25 26 28 30 32 33 34 35 35 36 37 38 38 39 40 40 41 42 42 42 42 42 41 40 39 37 36 35 33 31 29 28 27 25 23 21 19 17 15 14 13 11 8 7 6 5 3 3 3 6 9 10 12 13 15 17 19
22 22 23 23 23 23 24 24 25 25 24 24 25 25 25 24 24 24 24 24 24 24 23 22 21 21 21 21 21 22 23 23 25 26 28 30 32 33 34 34 36 38 38 39 39 39 40 41 41 42 42 42 42 42 41 40 39 38 36 34 33 32 31 29 27 25 24 22 20 18 16 15 14 11 10 8 7 5 3 2 3 6 8 9 10 12 14 16
23 23 23 24 24 24 24 25 25 26 25 25 25 25 25 25 25 24 24 24 24 24 24 23 22 22 22 22 22 22 22 23 23 25 26 28 30 31 33 33 35 37 38 39 39 39 40 40 41 42 43 43 43 42 42 42 41 40 38 35 34 33 33 32 29 28 26 25 23 20 19 18 16 13 11 10 9 7 4 2 1 4 5 7 8 10 12 14
23 24 24 24 24 25 25 25 25 26 26 25 25 25 26 26 25 25 25 24 24 24 24 23 23 23 23 23 22 22 22 23 23 24 25 27 29 30 31 32 34 36 37 38 39 40 39 40 41 42 43 43 43 43 43 43 42 41 39 38 36 34 35 34 32 31 29 27 25 23 21 20 19 16 13 12 10 9 5 3 2 2 3 4 6 7 9 11
23 23 24 24 24 24 24 24 24 25 26 26 25 26 26 25 25 25 25 25 25 24 24 23 22 23 23 23 23 22 22 23 23 23 24 26 27 29 30 31 33 34 35 37 38 39 39 40 41 41 42 43 43 43 43 43 43 42 41 41 40 38 37 36 35 33 31 30 28 26 24 22 21 18 16 13 11 10 8 5 4 4 3 3 4 5 6 9
22 22 23 23 23 24 24 24 24 25 25 25 25 26 25 25 25 25 25 26 26 25 24 23 22 22 23 23 23 22 22 22 23 23 24 24 26 27 29 30 31 33 33 35 37 39 40 40 41 41 42 42 43 43 43 44 44 44 44 44 43 42 40 39 38 35 33 32 31 29 27 25 23 21 18 16 13 12 10 8 7 7 5 3 2 3 4 6
20 21 21 21 21 22 23 24 24 25 25 25 25 25 25 25 24 24 25 26 26 25 24 23 22 22 22 23 23 22 22 22 23 23 23 24 25 26 28 29 30 31 32 33 35 38 39 40 40 41 42 42 43 43 44 45 46 46 45 45 45 44 43 42 41 38 36 34 33 31 29 27 26 24 21 19 15 14 13 11 8 8 8 6 3 3 3 3
18 18 19 19 19 20 22 23 24 24 24 24 25 25 24 24 23 23 23 25 26 25 24 22 22 22 22 23 22 22 22 22 22 23 24 24 25 26 27 28 29 30 31 31 34 37 38 39 40 41 41 42 42 43 44 45 47 47 46 46 46 46 46 45 43 41 38 37 35 34 31 30 29 27 25 22 19 16 15 14 11 10 10 8 6 5 4 3
15 16 17 18 18 19 21 23 24 24 24 23 24 24 24 23 22 22 22 24 24 24 23 22 21 21 22 22 22 22 22 22 22 23 24 24 24 25 26 27 28 29 30 31 32 35 37 38 39 40 40 41 42 42 44 45 46 47 47 47 47 47 47 46 45 43 40 39 37 36 34 32 31 29 28 26 23 19 18 17 14 12 12 11 9 7 6 4
14 15 16 17 18 19 20 22 24 25 25 23 23 23 24 23 22 22 22 23 23 24 23 21 20 21 22 22 21 22 22 22 22 23 24 24 24 25 26 27 28 28 29 30 31 33 35 36 37 38 39 40 41 43 44 45 46 46 47 47 47 47 47 47 46 44 43 41 39 38 37 35 33 31 30 29 27 23 20 20 18 15 14 13 11 10 8 6
14 15 16 17 18 19 20 22 24 25 26 25 23 23 24 24 23 22 22 22 22 23 22 21 20 20 21 22 21 21 22 22 23 23 23 24 24 25 25 26 27 28 29 30 30 31 33 34 35 37 38 40 42 43 44 44 45 45 46 47 48 48 48 47 47 46 45 44 42 41 40 38 36 34 32 31 29 27 24 22 21 18 16 16 14 12 10 9
17 17 17 18 19 19 20 21 23 25 26 26 24 23 24 24 24 24 22 21 22 22 22 21 19 19 21 21 20 21 22 22 23 23 23 24 24 25 25 26 27 28 29 29 28 29 31 33 34 36 38 39 41 42 43 44 45 45 46 46 47 48 48 47 47 48 47 46 45 43 42 41 40 38 35 33 32 30 27 25 23 22 19 18 16 15 13 11
19 19 20 20 21 22 21 22 23 25 26 26 25 24 24 24 25 25 24 22 21 22 22 21 20 20 21 21 20 21 21 23 24 23 23 24 24 25 25 26 27 28 28 28 28 28 29 32 33 35 37 38 39 41 42 43 44 45 46 46 47 47 47 47 48 49 49 48 47 46 44 43 42 40 38 36 34 32 31 28 26 25 22 20 19 18 16 14
21 22 22 23 24 25 25 25 25 26 27 27 26 25 24 24 25 25 25 23 22 22 21 21 20 21 21 21 21 20 22 23 24 24 24 24 24 25 25 26 27 27 27 28 27 27 29 31 32 34 35 36 37 39 40 42 43 44 45 45 46 46 46 47 48 49 49 49 49 48 46 45 44 43 41 39 37 35 33 32 29 27 25 23 21 20 19 18
23 23 23 24 25 27 27 27 28 29 29 29 28 26 26 25 25 25 24 24 23 22 22 20 20 21 22 21 21 20 22 23 24 24 24 24 24 24 25 26 26 26 27 27 27 27 29 30 31 32 33 34 36 37 38 40 42 43 44 44 44 45 45 46 47 48 48 48 49 49 47 47 46 45 44 42 40 38 36 34 32 30 28 26 24 23 22 20
23 23 23 24 26 28 29 29 30 31 31 32 31 29 28 27 27 26 24 24 23 22 23 21 19 21 23 22 20 21 22 23 24 25 24 24 24 24 25 26 26 26 26 27 27 28 29 30 30 30 32 33 34 35 37 38 40 41 42 42 44 45 45 46 47 47 48 48 49 49 48 48 48 47 46 44 42 41 39 37 35 33 31 29 27 26 25 23
24 24 23 24 25 27 30 31 31 32 32 33 33 32 31 29 29 28 26 25 23 22 23 23 20 20 22 22 20 21 22 24 25 25 24 24 24 24 25 25 26 26 26 26 27 28 29 29 29 30 31 32 33 34 35 36 38 38 39 41 43 45 46 47 47 48 48 49 50 50 49 49 49 48 47 46 44 43 41 40 38 36 34 32 30 29 28 26
26 25 24 24 25 26 28 30 31 31 32 34 34 34 34 33 32 30 28 26 24 23 22 22 21 20 21 22 21 21 23 24 25 24 24 24 24 24 25 25 25 26 26 26 27 28 29 29 29 30 30 31 32 33 34 35 36 37 38 40 42 44 45 46 47 48 49 49 49 49 49 49 49 49 49 48 46 45 44 42 41 38 37 35 33 31 30 30
28 28 26 25 26 26 27 28 30 30 32 33 34 34 34 35 35 33 31 28 25 25 23 21 21 20 20 21 21 22 23 25 25 23 23 24 24 24 24 24 25 25 25 25 26 28 28 28 29 29 29 30 30 32 33 34 34 35 37 39 40 42 43 45 46 47 48 48 48 48 48 49 49 49 49 48 48 47 46 45 43 41 39 37 36 34 33 32
31 31 29 27 28 28 28 28 29 30 31 32 32 33 34 35 36 35 34 31 29 28 25 22 20 20 20 21 21 22 23 24 24 23 23 23 23 23 24 24 24 24 24 24 26 27 27 27 28 28 28 28 29 31 32 32 33 34 36 37 38 40 41 42 44 45 46 47 47 48 48 48 49 48 49 49 49 49 48 47 45 44 42 40 38 36 35 34
33 33 32 30 29 30 30 29 29 30 31 31 31 32 34 35 35 35 35 35 33 31 27 24 23 22 21 21 21 21 22 24 24 23 22 21 21 23 23 23 23 23 23 24 25 25 25 26 26 26 26 27 29 30 31 31 33 34 34 35 36 38 39 40 42 43 44 45 46 47 48 48 48 47 48 49 49 50 50 49 48 46 45 43 42 39 37 36
34 35 34 33 31 31 31 31 31 31 31 31 31 32 33 34 35 35 36 37 35 32 29 27 26 24 23 22 21 21 22 23 23 22 21 20 21 22 22 22 22 22 23 23 24 24 25 25 24 25 26 27 28 29 29 30 32 32 33 34 35 36 37 38 39 41 42 44 46 47 47 48 47 47 48 49 49 50 50 50 50 49 47 46 45 42 40 39
35 36 36 35 34 33 33 33 32 32 32 32 32 32 32 33 35 36 36 35 34 33 32 30 28 27 25 23 23 22 22 22 23 21 20 21 22 22 22 21 21 21 21 23 24 25 25 24 24 25 25 25 26 27 27 28 29 31 32 33 35 36 37 38 38 39 41 42 45 46 46 46 46 47 48 49 50 50 50 50 50 50 49 48 47 45 43 42
36 37 38 38 37 36 36 36 35 34 33 33 33 33 33 33 36 36 35 33 32 34 34 32 31 30 27 25 24 24 23 23 23 22 21 22 23 23 23 21 20 19 20 22 23 24 23 23 24 24 24 23 24 24 25 26 28 30 31 33 34 35 36 36 37 39 40 41 43 44 43 43 45 46 48 49 49 50 50 50 50 50 50 50 49 48 46 45
37 38 38 40 39 38 38 38 38 37 36 35 34 34 34 35 36 35 34 34 33 34 35 35 35 33 30 28 26 25 25 26 25 24 23 24 24 24 23 22 20 19 20 22 22 22 22 22 22 22 21 20 21 21 23 25 27 28 30 31 32 33 34 35 37 38 39 40 41 41 40 40 43 46 47 47 48 49 50 50 50 50 51 51 50 50 49 47
38 38 39 40 40 40 40 40 40 39 38 37 36 35 36 36 35 34 34 35 34 34 35 36 37 36 33 31 29 28 27 27 27 26 26 26 26 25 25 24 23 22 21 22 21 20 20 20 20 20 19 19 19 20 22 23 24 26 28 29 30 32 33 35 36 38 38 39 39 38 38 39 42 44 45 46 47 48 49 49 49 49 50 51 51 51 51 50
38 39 40 41 41 41 41 41 41 41 40 39 38 38 38 37 35 35 35 35 35 35 35 36 38 38 36 34 32 31 29 28 28 28 28 29 28 28 27 26 25 24 23 23 22 21 21 20 21 21 21 20 20 21 22 21 22 24 25 26 28 30 31 32 34 36 37 37 37 38 39 39 41 43 43 43 45 47 48 48 48 48 49 50 51 52 52 52
39 39 40 41 42 42 42 42 43 43 42 41 40 40 40 38 36 36 36 36 36 36 36 36 37 39 39 37 35 34 32 30 29 29 30 30 30 30 29 28 26 25 25 24 24 23 23 22 23 23 22 21 22 23 22 22 22 22 23 24 26 27 28 30 32 33 34 35 36 37 38 38 40 42 40 38 41 45 47 47 47 47 48 49 50 52 53 53
38 39 40 41 42 43 43 44 44 44 44 44 43 42 41 40 39 38 37 37 37 37 37 37 37 39 40 39 37 36 34 33 31 31 31 30 31 32 30 28 27 25 25 25 25 25 25 24 25 24 23 23 24 24 23 23 23 22 23 24 25 25 26 28 29 30 31 32 34 36 37 37 40 41 39 37 37 41 45 46 47 46 47 48 49 50 52 53
37 39 40 41 42 43 44 45 46 46 47 46 45 44 43 42 41 39 40 39 38 37 38 37 37 38 40 40 39 38 37 35 34 33 32 31 32 32 30 29 27 25 25 26 26 26 25 25 25 25 24 25 25 24 24 23 22 22 23 24 24 24 25 26 26 26 28 29 32 34 35 37 39 39 39 40 40 41 43 45 46 46 46 47 48 49 51 52
37 38 40 41 42 43 45 46 47 48 48 48 48 47 46 44 42 41 41 40 39 38 37 38 39 39 40 41 41 41 40 38 37 35 34 33 33 32 31 30 28 26 27 27 26 26 26 26 25 25 26 26 25 24 22 21 22 23 24 24 23 23 24 26 25 25 27 28 29 31 33 36 37 37 38 39 41 41 41 43 45 45 46 47 48 49 50 51
39 38 39 40 41 42 44 45 47 48 48 48 48 48 48 46 44 43 41 41 41 40 39 39 40 41 41 42 42 42 42 41 39 37 36 36 35 34 32 30 29 28 28 28 27 27 28 27 26 26 26 25 23 22 21 22 23 24 24 23 23 23 24 25 25 26 28 28 29 30 31 32 33 35 36 38 40 41 40 41 43 45 46 47 47 49 49 50
42 40 40 40 40 41 42 43 45 46 46 46 46 46 47 47 46 43 41 42 42 42 42 41 41 42 43 42 43 43 43 43 41 40 39 38 38 35 33 31 29 29 30 31 30 30 30 28 27 27 26 24 24 23 23 24 25 24 23 23 22 22 23 24 24 25 27 28 28 29 30 31 31 33 36 37 39 40 41 42 43 44 45 46 47 48 49 50
45 44 43 42 41 40 40 41 42 43 43 44 44 43 44 45 46 44 43 43 43 43 43 42 42 43 44 44 43 43 44 44 43 43 42 41 39 36 33 31 30 31 33 33 32 32 31 29 29 29 27 26 26 26 26 27 27 25 24 23 22 22 22 23 22 23 24 25 26 27 29 30 31 32 34 35 36 38 40 42 44 44 45 45 47 48 49 50
48 47 45 44 42 40 39 40 40 40 40 41 41 40 41 43 44 45 43 43 43 44 44 44 44 44 44 45 44 44 44 44 44 44 44 44 42 38 35 33 33 34 35 34 33 32 31 31 31 29 27 27 27 28 30 30 28 26 25 24 24 23 23 23 22 22 23 23 24 26 28 28 29 30 30 31 33 36 38 41 43 44 45 45 46 47 49 50
49 48 48 46 43 41 39 39 39 39 39 38 38 37 38 40 42 44 44 43 43 45 45 45 46 45 45 45 45 45 45 46 46 46 45 46 45 41 38 37 37 37 35 34 33 32 32 32 31 29 28 29 30 31 30 29 27 28 28 27 27 26 25 25 24 24 23 23 23 25 26 26 26 27 28 29 30 33 36 39 41 43 45 45 46 47 48 50
51 49 49 48 45 42 40 38 38 38 38 37 36 35 37 39 41 42 43 42 43 45 46 46 46 46 46 45 46 46 46 47 48 48 47 47 47 45 42 41 41 39 37 36 34 33 34 33 32 31 31 31 31 29 27 27 28 29 30 30 30 29 27 27 27 26 24 23 23 25 26 25 24 24 25 27 29 31 32 36 39 42 43 45 46 47 48 49
52 51 50 49 47 45 42 40 37 37 37 37 36 35 35 37 39 41 42 42 43 45 47 47 47 47 47 46 47 48 48 48 48 49 49 49 48 47 46 45 44 41 40 38 36 35 35 35 34 34 34 33 31 28 27 28 28 29 29 30 31 31 30 30 29 28 26 25 26 26 26 25 26 24 22 22 27 30 31 32 35 39 41 43 44 46 47 48
54 52 51 50 48 47 45 43 39 37 37 37 36 35 35 35 37 39 40 41 42 44 46 47 47 47 48 48 49 49 49 49 49 50 51 51 50 48 48 47 46 44 42 40 38 37 37 36 35 35 36 35 32 29 28 29 29 29 28 29 30 32 33 33 31 30 29 28 29 28 26 25 27 26 23 21 24 27 29 30 32 35 38 40 42 44 46 48
56 54 52 51 50 49 47 46 42 38 37 37 36 36 36 35 36 37 38 39 40 42 44 46 47 48 49 50 50 50 50 50 50 51 51 52 52 51 50 49 48 47 45 42 40 39 38 37 36 37 38 36 33 31 30 30 30 30 28 28 29 31 33 34 33 33 32 32 31 29 27 27 28 28 26 23 23 24 25 27 29 31 34 37 39 42 44 46
58 56 55 53 51 50 49 47 45 41 38 37 37 38 38 37 37 38 38 37 37 39 41 43 46 48 50 51 51 51 50 50 51 52 52 52 52 53 52 51 49 49 47 45 43 41 40 39 37 38 38 37 34 33 32 32 31 29 28 27 28 30 32 34 35 35 34 33 32 31 29 29 31 31 29 26 24 24 23 23 24 26 29 32 35 38 41 43
61 59 57 55 53 52 50 48 46 43 39 38 38 39 39 39 40 41 40 39 37 38 40 42 44 47 49 51 51 51 51 51 52 53 53 53 53 53 54 52 51 50 49 47 45 44 43 41 39 38 38 37 36 35 34 33 31 29 28 28 28 29 31 32 34 36 36 35 34 33 32 34 36 35 32 29 27 26 24 22 22 22 24 27 30 34 37 40
63 61 59 57 55 53 51 48 46 44 41 39 39 40 41 42 43 43 43 42 42 41 42 42 44 47 48 49 50 51 52 53 53 54 54 54 53 53 54 54 54 53 52 50 48 46 45 43 40 39 38 37 36 36 35 33 30 28 27 28 28 29 29 30 32 34 36 36 36 36 36 38 39 37 34 31 29 28 26 24 23 22 23 25 26 29 32 36
Wind_Direction
269 269 269 269 269 268 268 267 266 264 263 260 257 254 252 250 247 244 242 240 240 240 239 238 237 237 236 235 235 233 232 230 229 228 228 227 227 227 228 227 227 226 224 222 221 220 220 221 220 219 220 222 224 227 228 228 226 224 225 226 232 240 242 244 246 253 260 264 282 318 325 335 342 343 7 27 27 25 26 27 29 32 33 33 33 37 43 45
270 270 271 271 270 270 269 268 267 265 264 263 260 258 255 253 252 250 247 243 241 240 239 239 238 238 237 237 236 234 233 232 230 229 228 228 227 227 228 228 228 227 226 224 222 220 220 221 221 221 221 221 223 226 229 229 226 225 226 223 226 235 240 242 244 250 258 262 270 301 316 332 343 340 4 27 28 27 28 27 30 33 34 36 37 38 44 48
270 270 271 271 271 271 270 270 269 267 266 265 263 261 258 257 255 253 252 249 245 242 240 239 239 238 239 238 237 236 235 233 231 230 229 229 228 228 228 228 228 228 227 226 224 222 221 221 222 222 222 221 223 225 228 229 227 227 228 225 225 231 237 239 242 248 255 259 260 280 301 324 346 338 358 26 29 29 29 29 31 34 36 38 40 41 45 51
270 270 271 272 272 272 272 272 272 271 270 268 267 266 264 262 259 257 255 253 250 246 243 241 240 239 239 239 238 237 236 235 233 231 230 229 229 228 228 228 228 228 228 227 226 224 223 222 222 222 222 222 222 224 227 228 227 229 230 227 228 231 232 235 240 244 248 252 253 260 277 304 348 337 348 23 30 28 30 30 33 36 38 41 43 46 47 52
269 271 272 272 272 272 272 272 272 273 272 272 271 270 269 268 265 262 260 257 254 251 247 243 242 241 239 239 238 238 237 237 235 232 230 230 229 229 228 228 228 228 228 228 227 226 225 224 223 222 222 222 222 222 225 226 226 230 231 228 227 230 230 232 239 242 242 246 249 245 251 272 342 336 335 17 30 28 31 30 33 37 39 42 46 49 51 54
268 270 272 273 273 273 273 273 273 273 273 273 274 274 273 272 270 268 265 262 259 256 253 248 244 243 241 240 239 238 238 237 237 234 232 231 230 229 228 228 229 228 228 228 228 227 227 226 225 224 223 223 223 222 223 224 224 227 230 227 227 229 230 233 239 243 241 242 246 241 241 257 301 333 328 4 27 29 32 31 34 39 40 44 48 52 54 56
268 269 271 273 274 274 274 274 274 274 273 273 273 274 275 275 274 273 271 268 264 261 257 254 250 246 243 241 240 239 238 238 238 236 234 232 231 230 229 229 229 229 228 228 228 228 228 227 226 226 225 224 224 223 224 224 223 225 227 227 227 228 228 233 238 242 243 241 243 242 242 250 265 309 318 340 17 28 32 32 35 39 41 44 49 54 57 58
267 268 270 271 272 273 274 274 274 273 273 273 273 273 274 275 275 276 275 273 270 266 262 259 256 251 247 244 242 240 239 238 238 238 236 234 232 231 230 229 229 229 229 228 228 228 228 228 227 227 226 226 225 225 225 225 225 225 226 226 227 227 227 230 235 237 241 240 239 241 243 247 255 265 293 314 354 22 30 33 36 41 43 45 51 57 60 62
268 269 270 271 272 273 274 274 274 274 273 273 273 273 273 274 275 276 276 275 273 271 267 264 260 257 252 248 245 242 240 239 238 238 238 235 234 232 231 230 229 229 229 228 228 228 228 228 228 227 227 227 227 227 226 226 226 227 227 227 227 227 227 229 231 234 236 237 237 239 242 245 249 250 266 287 317 359 22 34 39 42 45 47 51 58 63 66
271 271 271 272 272 273 273 274 274 274 274 274 274 273 273 273 274 274 275 275 275 273 270 267 264 260 257 253 249 245 242 240 239 238 238 237 235 233 232 231 231 229 229 229 228 228 228 229 229 228 228 227 228 228 228 228 228 228 228 227 228 227 227 228 228 231 233 234 234 236 239 241 242 243 250 262 274 309 352 30 44 45 47 49 52 58 64 67
273 273 273 273 274 274 274 274 275 275 275 276 276 275 275 274 273 273 273 273 274 273 271 268 265 262 259 256 253 249 244 241 240 239 238 238 236 234 233 232 232 231 230 229 228 228 228 228 229 229 229 228 228 229 229 229 228 229 229 228 229 228 228 228 227 229 231 233 233 232 233 235 235 236 241 247 254 271 309 349 54 51 48 51 52 58 62 66
274 275 275 275 275 275 275 275 275 276 277 277 277 278 278 277 276 275 273 272 271 270 269 267 265 262 260 257 254 251 247 243 241 239 239 238 237 235 233 232 232 233 231 230 229 228 227 227 228 229 229 229 229 229 229 230 229 230 230 229 230 231 231 229 227 228 228 230 231 229 229 230 229 232 236 239 245 253 274 293 92 72 55 54 54 58 62 64
277 277 277 277 276 276 276 275 276 276 277 278 278 278 279 279 279 278 276 273 270 268 266 265 263 261 259 257 254 252 250 246 243 240 239 239 238 236 234 232 232 233 233 232 230 229 228 228 228 228 229 229 229 229 230 231 231 231 231 230 229 231 233 231 227 227 227 228 230 228 226 226 224 226 233 234 237 242 247 260 229 142 86 66 60 60 64 65
280 280 279 279 279 278 277 276 275 275 276 277 277 278 278 278 278 278 277 275 272 268 265 264 262 260 258 256 254 252 251 250 246 242 240 239 238 237 235 233 232 232 232 233 233 231 229 229 228 228 228 228 229 229 230 230 231 231 231 231 230 228 231 230 227 226 227 227 228 227 225 224 223 223 228 231 231 235 233 234 232 199 148 98 76 69 67 69
282 282 281 281 281 280 279 278 277 276 276 276 277 277 277 277 277 277 277 275 273 269 266 264 263 260 257 256 254 252 250 250 248 245 242 240 239 238 236 235 233 231 231 232 233 233 231 230 229 228 228 228 228 229 229 229 230 230 230 231 231 230 231 231 229 227 227 227 227 227 226 224 223 223 226 229 228 230 230 224 225 213 181 148 118 95 81 78
283 283 283 282 282 282 282 281 280 279 278 278 278 278 277 277 277 277 276 276 274 271 268 265 264 261 258 255 254 252 250 248 248 246 243 241 240 239 237 236 234 232 229 229 233 233 232 231 230 229 228 228 228 228 228 228 229 229 229 230 231 231 232 232 231 228 226 228 228 227 226 225 225 225 226 228 228 228 230 225 219 217 198 174 170 153 126 99
287 287 287 286 285 285 285 284 283 282 281 281 281 280 280 279 278 277 276 276 275 273 270 267 265 262 259 256 253 252 249 247 247 246 243 241 240 240 238 237 235 234 230 227 230 232 232 232 232 230 229 228 228 228 228 228 229 229 229 230 231 232 232 233 233 231 227 227 228 228 227 226 226 227 226 227 228 228 229 228 219 216 209 190 184 186 175 160
295 294 293 292 290 288 287 286 286 286 285 284 284 284 283 282 281 278 277 276 276 275 272 269 266 263 260 256 253 252 250 247 245 245 244 241 240 240 239 238 236 235 232 228 228 231 232 232 232 232 231 230 228 228 228 229 229 229 229 230 231 232 233 233 234 233 231 229 229 230 229 227 227 228 228 227 228 229 228 229 224 217 214 203 194 195 192 192
300 298 296 294 293 291 289 288 288 288 288 287 286 287 287 285 283 280 278 277 277 276 274 272 268 264 261 257 254 252 251 247 245 245 244 242 240 239 239 239 238 236 234 230 227 229 231 231 231 232 231 230 229 228 228 229 229 230 230 230 231 232 232 233 234 234 233 231 229 230 231 229 227 228 229 228 228 229 228 228 227 221 216 211 204 200 200 201
299 297 296 294 293 291 290 288 288 288 289 289 288 288 288 287 285 282 279 278 277 277 276 273 269 266 262 258 255 253 251 248 245 244 244 243 241 239 239 239 239 237 236 233 229 229 230 230 230 230 230 230 230 230 229 229 229 230 230 231 231 231 232 233 233 234 234 233 230 230 230 230 229 228 228 228 228 228 228 227 227 226 220 214 210 205 205 205
295 294 293 293 292 290 289 288 288 288 288 289 289 288 287 287 287 284 282 279 278 277 276 273 268 265 263 259 256 254 252 250 247 245 244 244 242 241 240 239 239 239 237 235 231 229 230 230 229 229 229 229 230 230 230 230 229 229 229 230 231 231 232 232 233 233 234 233 232 230 230 230 230 228 227 227 228 227 228 227 226 227 224 217 212 210 210 210
292 290 289 289 288 287 286 286 286 287 287 288 288 287 286 285 285 284 283 280 277 276 275 273 269 264 262 259 256 254 253 251 248 246 245 244 243 242 242 241 240 240 239 237 233 230 230 230 230 229 229 229 229 230 230 230 230 230 229 229 230 231 231 231 232 233 233 233 233 232 230 230 230 230 228 227 227 226 226 226 224 225 226 220 214 213 213 213
292 290 288 287 285 284 283 282 282 283 284 285 285 285 285 284 283 282 282 281 278 275 272 271 270 265 262 260 257 254 254 252 249 248 246 245 244 243 243 242 241 241 240 238 235 232 231 231 231 230 230 229 229 229 230 231 231 231 231 230 231 231 231 231 232 232 233 234 234 233 231 231 231 231 230 228 227 226 225 225 223 223 225 223 218 215 215 214
296 293 290 288 286 284 282 280 279 279 279 280 281 281 282 282 281 280 280 279 278 276 273 269 268 267 263 260 257 255 255 254 251 249 248 246 245 244 244 243 242 242 241 239 237 234 233 232 232 231 231 230 230 229 229 230 230 231 231 231 231 232 231 232 232 232 233 233 234 233 232 231 231 230 230 230 228 227 225 225 223 221 222 224 221 217 217 217
302 299 295 291 288 285 283 281 279 278 277 277 277 277 278 278 278 277 277 277 276 276 275 270 264 265 266 261 257 256 255 254 253 251 249 248 247 246 245 244 243 242 241 240 238 236 235 234 232 232 231 231 231 230 229 229 230 230 230 229 230 230 231 231 232 231 231 232 232 233 232 232 231 231 230 230 229 228 226 225 224 221 220 221 222 219 217 218
304 302 300 295 291 287 285 283 281 280 278 277 276 275 274 274 274 274 274 275 275 274 274 272 266 262 264 262 258 256 255 254 252 252 251 249 248 247 246 245 244 242 241 239 238 237 236 234 233 232 232 232 232 231 231 231 230 230 229 228 228 229 229 230 231 232 232 232 232 232 231 232 232 231 231 230 229 228 227 226 225 223 220 219 221 222 219 218
301 301 301 299 294 290 288 286 283 281 279 277 276 274 273 271 271 271 271 272 273 272 269 271 270 265 262 260 257 254 254 253 252 251 250 250 248 247 246 245 243 242 240 239 238 237 236 234 233 232 232 232 232 232 232 231 230 230 229 228 228 228 228 229 230 232 233 233 234 234 233 233 232 231 231 230 230 229 228 227 225 224 222 219 219 221 222 220
298 298 299 298 294 292 289 288 286 284 280 278 277 275 273 271 269 269 268 268 269 268 265 265 268 269 265 261 256 252 251 252 252 251 250 249 248 247 245 244 242 241 239 238 237 236 235 234 233 232 232 232 233 233 232 232 232 231 231 230 230 230 229 230 230 231 232 233 234 235 234 234 234 233 232 231 230 229 228 227 226 225 223 221 218 220 223 223
299 298 299 297 294 291 289 287 287 285 282 280 278 276 273 270 269 267 266 266 264 264 264 262 261 262 263 261 257 254 252 252 251 250 249 248 246 245 244 242 242 240 239 237 236 237 236 234 234 233 233 233 233 233 233 233 233 232 232 232 232 232 231 231 231 232 233 233 233 233 234 235 235 235 234 232 230 230 229 227 226 225 224 223 220 218 222 225
299 299 299 297 294 291 289 287 286 285 283 282 279 276 273 271 269 267 264 263 262 262 264 264 260 256 255 256 256 255 253 251 250 249 247 245 243 242 242 241 241 240 237 235 236 237 236 236 235 234 233 232 233 233 233 233 233 233 232 232 233 234 233 232 232 232 233 233 233 233 233 234 234 234 234 233 232 231 229 228 226 225 224 223 221 219 220 225
299 298 298 296 294 291 289 287 285 283 282 282 280 277 274 271 269 266 263 262 261 261 261 261 260 257 253 251 251 250 250 249 249 246 243 239 237 237 239 239 238 237 235 235 235 235 236 236 235 234 232 232 233 233 233 233 233 233 232 231 231 232 233 233 233 233 233 233 233 233 233 233 233 233 234 233 232 231 230 229 227 225 224 223 223 220 219 222
299 298 297 296 294 292 290 288 285 282 280 279 279 277 275 272 269 265 264 263 261 258 256 256 257 257 252 248 246 245 246 247 246 244 238 233 232 233 235 235 235 235 234 234 234 234 235 235 234 233 232 233 234 234 234 234 233 233 232 231 230 230 231 232 232 233 233 233 234 234 233 234 234 233 234 234 233 232 231 230 228 227 225 224 223 222 220 219
298 297 296 295 293 292 290 288 286 284 280 278 277 276 275 272 269 267 266 264 259 254 252 250 250 252 251 248 245 243 242 243 242 239 234 231 229 229 232 233 232 230 230 231 232 233 234 233 232 232 231 232 233 234 234 234 233 232 231 231 230 230 230 231 232 232 233 233 234 235 234 234 234 234 234 234 234 233 232 231 229 228 227 225 223 223 221 220
297 296 295 294 293 291 289 288 286 284 282 279 276 274 272 270 269 269 266 262 257 252 249 247 246 247 247 247 245 242 239 238 238 236 232 231 229 228 230 230 227 223 224 227 229 229 229 228 227 227 225 225 227 228 229 230 231 232 232 232 231 230 230 230 231 232 233 234 235 236 235 234 235 235 235 235 235 234 233 232 230 229 228 227 225 224 223 221
298 296 294 293 292 290 289 287 285 284 282 280 277 274 270 268 268 268 265 261 258 253 249 246 245 244 243 243 243 242 239 237 236 233 231 231 230 229 229 229 225 222 223 226 227 225 223 221 219 216 214 214 216 219 222 226 229 231 232 233 232 231 230 230 230 231 232 234 235 234 234 233 234 236 236 236 236 236 234 233 232 230 228 227 226 225 224 223
301 298 296 294 292 290 289 287 285 283 281 279 278 275 271 268 267 265 263 260 257 254 249 245 243 242 241 240 240 241 239 237 236 233 231 231 232 231 230 229 227 225 226 228 226 222 218 215 213 212 211 211 214 218 219 221 226 229 231 232 233 232 231 231 231 231 231 233 233 233 232 231 232 234 235 236 238 238 237 235 233 231 229 227 227 226 225 224
303 300 298 295 293 292 289 287 285 283 281 279 276 274 272 270 266 263 261 259 256 253 250 245 243 241 239 238 238 239 239 237 235 234 232 231 232 232 231 230 228 225 225 227 226 223 218 215 216 216 216 216 218 221 222 222 226 229 230 232 233 233 232 232 232 232 231 232 232 232 233 232 232 233 233 234 237 239 238 237 235 233 231 229 227 226 226 225
305 302 299 297 295 293 290 287 285 283 280 278 275 272 271 269 266 263 260 257 254 251 249 246 243 241 239 237 236 237 237 236 235 234 232 231 231 232 232 230 228 224 224 224 225 224 221 219 220 221 220 222 225 226 226 227 229 230 232 233 234 234 233 233 233 233 232 231 232 231 231 231 233 234 230 229 233 235 235 237 236 234 233 231 228 227 226 225
308 304 301 299 296 294 291 288 285 282 279 276 273 271 269 267 265 263 260 257 254 251 249 246 243 241 239 236 234 235 235 235 236 235 233 232 231 232 231 229 226 222 221 222 222 223 223 222 223 223 224 226 229 230 231 233 233 234 234 235 235 235 236 236 234 235 235 234 234 233 231 231 232 233 231 228 231 234 233 234 235 234 233 232 231 228 226 225
311 307 303 300 298 295 292 289 286 282 278 275 273 270 267 265 263 261 259 258 256 253 249 245 243 240 238 235 233 233 233 233 234 235 235 233 232 231 229 228 226 222 221 222 221 223 224 223 223 225 226 228 230 232 234 236 235 235 235 235 235 236 238 239 237 237 238 237 238 237 235 234 233 233 233 230 231 234 234 233 233 232 232 232 231 230 228 226
316 311 306 303 300 297 294 291 288 284 280 276 272 269 267 264 262 259 258 256 255 253 249 245 242 240 238 235 232 231 231 231 231 233 234 234 233 232 230 229 227 224 223 223 222 223 224 223 224 227 229 229 231 232 232 234 234 235 235 235 236 237 239 241 240 239 238 236 237 238 237 237 236 235 234 232 230 231 232 233 233 232 231 231 230 231 230 228
320 316 311 307 304 300 296 292 289 286 282 278 274 269 266 264 261 258 256 253 252 251 249 246 242 240 238 236 232 230 230 230 230 230 231 233 233 232 231 230 229 227 226 225 224 224 225 224 225 228 229 230 231 231 232 234 234 235 236 236 238 239 242 243 241 240 239 237 236 237 236 235 234 234 234 233 231 230 229 231 231 231 231 230 230 230 230 230
321 318 315 312 309 305 300 295 290 287 283 279 275 271 266 263 260 257 254 252 250 250 249 247 244 241 238 236 233 230 229 229 229 229 229 231 232 231 230 230 228 228 228 227 226 226 226 226 226 228 229 230 232 233 233 234 235 235 237 238 239 241 244 244 243 242 242 240 238 238 237 236 234 233 234 234 233 232 230 230 231 230 229 230 229 229 229 230
321 319 316 314 312 308 304 298 293 288 284 279 275 272 266 262 259 256 253 251 249 248 247 246 244 242 239 237 234 231 228 227 228 228 229 230 230 228 228 228 228 228 228 228 227 227 228 228 229 229 230 231 233 234 234 236 238 238 238 238 238 239 242 244 243 241 241 240 240 240 240 239 238 237 236 235 234 233 232 231 231 231 229 228 228 228 228 228
322 319 317 315 313 311 307 302 295 289 283 279 275 272 266 261 258 255 252 250 248 247 246 245 244 243 240 238 235 232 229 226 226 226 227 228 228 226 225 226 227 228 228 229 228 228 229 230 230 230 231 232 232 234 237 240 241 240 238 237 237 237 239 242 242 241 240 240 241 243 243 242 241 240 238 236 235 233 232 232 232 232 231 229 228 228 227 227
322 319 317 315 313 311 309 305 297 289 282 278 275 272 267 262 258 254 252 249 247 247 246 245 243 242 240 238 235 233 230 227 226 225 225 226 226 225 223 225 227 227 228 229 228 228 230 231 231 231 231 232 233 236 239 240 240 239 239 238 238 237 238 241 243 243 242 242 244 246 247 245 241 240 241 241 239 235 233 233 232 233 232 231 229 228 228 227
322 319 316 314 313 311 309 308 301 291 282 276 273 271 268 263 258 254 251 248 246 246 246 245 243 242 240 238 236 233 231 229 227 225 224 225 225 223 222 224 227 227 227 228 228 229 231 232 232 232 233 233 234 236 238 239 240 242 242 241 240 239 238 239 242 244 243 243 244 245 247 248 245 241 239 243 244 239 235 235 234 233 233 232 231 230 229 228
322 319 315 313 310 308 306 305 303 295 284 275 270 267 266 263 258 254 251 248 246 246 246 245 244 242 240 238 236 234 232 230 228 226 224 224 224 223 222 222 225 227 227 228 228 229 232 233 233 233 234 235 235 236 237 240 243 245 246 245 244 242 239 239 241 244 243 242 244 245 247 250 250 244 235 234 243 243 238 237 237 236 235 233 231 231 231 230
321 318 315 312 309 306 303 301 299 295 286 276 269 264 262 259 256 252 249 246 245 245 246 245 244 242 240 238 236 235 233 231 229 228 225 224 224 223 222 221 223 226 227 227 228 229 231 233 233 234 235 235 234 235 236 239 243 247 249 250 248 244 241 240 240 242 243 244 245 246 246 249 251 249 240 234 238 241 239 239 240 240 239 236 234 232 232 232
321 318 314 311 308 304 301 297 294 292 285 276 269 263 259 256 253 249 246 243 242 243 244 244 244 242 240 239 237 235 234 233 231 229 227 225 224 224 223 221 221 224 226 227 228 228 230 231 232 234 236 235 234 234 235 238 243 248 251 251 249 246 243 241 239 240 242 244 246 247 247 249 252 251 246 240 238 239 238 238 241 243 243 242 238 235 233 232
321 318 314 310 306 302 299 295 291 287 282 275 268 263 258 254 251 248 244 240 237 238 240 242 243 243 241 239 237 235 233 232 232 231 228 226 223 223 223 222 221 222 224 225 227 228 229 230 232 234 236 236 234 234 235 238 242 248 252 252 250 247 245 243 240 240 241 243 245 246 246 247 249 250 249 247 243 241 239 237 238 242 245 245 243 240 237 234
321 318 314 310 306 301 297 293 288 282 277 272 266 261 258 255 252 249 245 240 236 234 235 238 240 243 243 241 238 235 232 231 232 231 229 227 224 222 223 222 221 221 222 222 224 226 228 230 231 233 235 235 235 235 235 238 243 248 250 250 249 248 246 244 241 239 239 240 242 243 244 247 249 251 252 252 249 246 243 240 239 240 243 245 245 244 242 238
Height
10924 10924 10924 10924 10925 10925 10925 10925 10925 10925 10925 10925 10925 10926 10926 10926 10926 10926 10927 10927 10928 10929 10930 10930 10931 10932 10933 10934 10935 10936 10938 10940 10941 10943 10944 10946 10947 10949 10951 10953 10956 10959 10961 10964 10967 10969 10971 10973 10975 10977 10978 10980 10981 10982 10983 10985 10988 10990 10992 10994 10994 10992 10992 10992 10992 10992 10992 10992 10992 10992 10991 10991 10989 10989 10987 10985 10983 10982 10980 10977 10975 10972 10970 10968 10965 10963 10961 10959
10922 10922 10922 10923 10923 10923 10923 10923 10923 10923 10923 10923 10923 10923 10924 10924 10924 10924 10925 10925 10926 10927 10927 10928 10929 10929 10930 10931 10932 10933 10935 10937 10938 10940 10941 10943 10944 10946 10948 10950 10953 10955 10958 10961 10964 10966 10968 10970 10972 10974 10976 10977 10979 10980 10982 10984 10986 10988 10989 10992 10993 10991 10991 10991 10991 10992 10992 10992 10992 10992 10992 10991 10990 10989 10988 10985 10984 10983 10981 10979 10976 10974 10972 10970 10967 10965 10963 10961
10920 10921 10921 10921 10921 10921 10921 10921 10921 10921 10921 10921 10921 10921 10922 10922 10922 10922 10923 10923 10924 10925 10925 10926 10926 10927 10927 10928 10929 10930 10932 10933 10935 10937 10938 10940 10941 10943 10945 10947 10950 10952 10955 10958 10960 10963 10965 10967 10969 10971 10973 10975 10976 10978 10980 10982 10985 10986 10987 10989 10990 10990 10990 10990 10990 10991 10991 10991 10991 10991 10992 10991 10990 10989 10988 10986 10984 10983 10982 10980 10978 10976 10974 10972 10969 10967 10965 10963
10919 10919 10919 10919 10919 10919 10919 10919 10919 10919 10919 10919 10919 10919 10919 10920 10920 10920 10921 10921 10921 10922 10923 10923 10924 10924 10924 10925 10926 10927 10928 10930 10931 10933 10935 10937 10938 10940 10942 10944 10947 10949 10952 10954 10957 10960 10962 10964 10966 10968 10970 10972 10974 10976 10978 10980 10983 10984 10985 10987 10988 10988 10989 10989 10989 10989 10990 10990 10990 10991 10991 10991 10990 10989 10988 10987 10985 10984 10983 10981 10979 10977 10976 10974 10971 10969 10967 10965
10917 10917 10917 10917 10917 10917 10917 10917 10917 10917 10917 10917 10917 10917 10917 10917 10918 10918 10919 10919 10919 10920 10920 10921 10921 10921 10922 10922 10923 10924 10925 10926 10928 10930 10932 10933 10935 10937 10939 10941 10944 10946 10948 10951 10953 10956 10958 10960 10962 10964 10967 10969 10971 10973 10975 10978 10981 10983 10983 10985 10986 10987 10987 10988 10988 10988 10989 10989 10990 10990 10991 10990 10989 10989 10988 10987 10985 10985 10984 10982 10981 10979 10977 10975 10973 10971 10969 10968
10915 10915 10914 10914 10914 10914 10914 10914 10914 10914 10914 10914 10914 10915 10915 10915 10915 10916 10916 10917 10917 10917 10918 10918 10919 10919 10919 10920 10920 10921 10922 10923 10924 10926 10928 10930 10932 10934 10936 10938 10940 10942 10945 10947 10950 10952 10954 10956 10959 10961 10963 10965 10968 10970 10972 10975 10978 10979 10980 10982 10984 10984 10986 10986 10986 10987 10987 10988 10989 10989 10990 10990 10989 10989 10988 10987 10986 10985 10984 10983 10982 10980 10978 10977 10975 10973 10971 10970
10913 10913 10913 10912 10912 10912 10912 10912 10912 10912 10912 10912 10912 10912 10913 10913 10913 10913 10914 10914 10915 10915 10915 10916 10916 10916 10917 10917 10918 10918 10919 10920 10921 10922 10925 10926 10928 10930 10933 10935 10937 10939 10941 10943 10946 10948 10950 10953 10955 10958 10960 10962 10964 10967 10969 10971 10974 10976 10977 10979 10981 10982 10984 10984 10985 10985 10986 10987 10987 10988 10989 10989 10989 10989 10989 10988 10987 10985 10985 10984 10982 10981 10979 10978 10977 10975 10973 10972
10911 10911 10910 10910 10910 10910 10910 10910 10910 10910 10910 10910 10910 10910 10910 10911 10911 10911 10911 10912 10912 10913 10913 10913 10913 10914 10914 10914 10915 10916 10916 10917 10918 10919 10921 10923 10925 10927 10929 10931 10933 10935 10937 10939 10942 10944 10946 10949 10951 10954 10956 10959 10961 10963 10965 10968 10970 10972 10974 10976 10978 10980 10981 10982 10983 10984 10985 10985 10986 10987 10987 10988 10988 10988 10988 10988 10987 10986 10985 10984 10983 10981 10980 10980 10979 10977 10975 10974
10909 10908 10908 10908 10908 10908 10908 10908 10908 10907 10908 10908 10908 10908 10908 10908 10908 10909 10909 10909 10909 10910 10910 10911 10911 10911 10911 10912 10912 10913 10913 10914 10915 10916 10917 10919 10921 10923 10925 10928 10929 10931 10933 10935 10938 10940 10943 10945 10948 10950 10953 10955 10957 10959 10962 10964 10967 10969 10971 10973 10975 10977 10979 10980 10981 10982 10983 10984 10984 10985 10986 10987 10988 10988 10988 10987 10987 10986 10986 10985 10983 10982 10981 10981 10980 10979 10977 10976
10907 10906 10906 10906 10905 10905 10905 10905 10905 10905 10905 10905 10905 10906 10906 10906 10906 10906 10906 10906 10906 10907 10907 10908 10908 10908 10909 10909 10910 10910 10911 10911 10912 10913 10914 10915 10917 10919 10922 10924 10925 10927 10929 10931 10934 10937 10939 10941 10944 10946 10949 10951 10953 10956 10958 10961 10963 10966 10968 10970 10972 10974 10976 10977 10979 10981 10982 10983 10983 10984 10985 10985 10986 10987 10987 10987 10987 10986 10986 10985 10984 10983 10982 10982 10981 10980 10979 10977
10904 10904 10904 10903 10903 10903 10903 10903 10902 10902 10903 10903 10903 10903 10903 10903 10904 10904 10904 10904 10903 10904 10904 10905 10905 10905 10906 10906 10907 10907 10907 10908 10909 10910 10911 10912 10913 10916 10918 10920 10921 10923 10925 10927 10930 10933 10935 10937 10940 10942 10944 10947 10950 10952 10955 10957 10960 10962 10965 10968 10970 10972 10973 10975 10977 10978 10980 10981 10982 10983 10983 10984 10985 10986 10986 10986 10986 10986 10985 10985 10984 10983 10983 10982 10982 10981 10980 10979
10902 10902 10901 10901 10901 10900 10900 10900 10900 10900 10900 10900 10900 10900 10900 10900 10901 10901 10901 10901 10901 10901 10901 10901 10902 10902 10903 10903 10903 10904 10904 10905 10906 10907 10908 10908 10910 10912 10914 10916 10917 10918 10921 10923 10926 10929 10931 10933 10935 10938 10940 10943 10946 10949 10951 10954 10957 10959 10962 10965 10968 10969 10970 10972 10974 10975 10977 10978 10979 10981 10982 10982 10983 10984 10985 10985 10985 10986 10985 10985 10984 10984 10983 10983 10982 10981 10980 10980
10900 10899 10899 10899 10898 10898 10898 10898 10897 10897 10897 10897 10897 10897 10897 10897 10897 10897 10897 10897 10897 10898 10898 10898 10899 10899 10899 10900 10900 10901 10901 10902 10903 10904 10905 10905 10907 10908 10910 10912 10914 10915 10917 10919 10922 10924 10927 10929 10931 10934 10937 10939 10942 10945 10948 10951 10953 10956 10959 10962 10965 10967 10967 10968 10970 10972 10974 10975 10977 10979 10980 10981 10982 10983 10983 10984 10984 10985 10984 10984 10984 10984 10983 10983 10982 10981 10981 10980
10897 10897 10897 10896 10896 10895 10895 10895 10894 10894 10894 10894 10894 10894 10894 10894 10894 10894 10894 10894 10894 10894 10895 10895 10895 10896 10896 10896 10897 10898 10899 10899 10900 10901 10902 10902 10903 10905 10907 10908 10910 10912 10914 10916 10918 10920 10923 10925 10927 10930 10933 10935 10938 10941 10944 10947 10949 10952 10954 10956 10959 10962 10962 10963 10966 10968 10970 10972 10974 10976 10978 10979 10980 10981 10982 10982 10983 10983 10983 10983 10983 10984 10983 10983 10982 10982 10981 10980
10895 10894 10894 10893 10893 10892 10891 10891 10891 10891 10891 10891 10891 10891 10891 10891 10891 10891 10891 10890 10890 10891 10892 10892 10892 10893 10893 10893 10894 10895 10896 10896 10897 10897 10898 10899 10900 10901 10903 10904 10906 10908 10911 10912 10913 10915 10918 10920 10923 10926 10928 10931 10934 10937 10940 10942 10944 10946 10949 10951 10953 10956 10958 10959 10962 10965 10967 10969 10971 10973 10975 10977 10978 10979 10980 10981 10981 10982 10982 10982 10983 10983 10983 10983 10982 10982 10981 10981
10892 10892 10891 10891 10890 10889 10888 10888 10888 10888 10888 10888 10888 10888 10888 10888 10888 10888 10888 10887 10887 10887 10889 10889 10890 10890 10890 10890 10891 10892 10893 10893 10893 10894 10895 10896 10897 10898 10900 10901 10902 10905 10907 10909 10909 10911 10913 10916 10919 10922 10924 10927 10930 10932 10935 10937 10938 10940 10943 10946 10949 10951 10953 10955 10958 10961 10964 10966 10968 10970 10972 10974 10975 10977 10978 10979 10980 10980 10980 10981 10981 10982 10982 10982 10982 10982 10982 10981
10890 10889 10889 10888 10888 10887 10886 10885 10885 10884 10884 10885 10885 10885 10885 10885 10885 10886 10885 10884 10884 10884 10885 10886 10887 10887 10887 10887 10888 10889 10889 10890 10891 10891 10892 10893 10894 10895 10896 10897 10899 10901 10904 10906 10906 10907 10909 10912 10914 10917 10920 10923 10926 10928 10929 10931 10933 10936 10939 10941 10944 10946 10948 10951 10953 10957 10960 10962 10964 10967 10969 10971 10973 10974 10976 10977 10978 10979 10979 10979 10980 10980 10981 10981 10982 10982 10982 10982
10888 10887 10887 10886 10885 10885 10884 10882 10881 10881 10881 10882 10882 10881 10882 10882 10883 10883 10882 10881 10881 10881 10882 10883 10884 10884 10884 10884 10885 10886 10886 10887 10887 10888 10889 10890 10890 10891 10893 10894 10895 10897 10899 10902 10903 10903 10905 10908 10910 10913 10916 10919 10921 10923 10924 10925 10928 10931 10934 10936 10939 10942 10944 10947 10949 10953 10956 10959 10961 10963 10965 10967 10970 10971 10973 10974 10975 10977 10977 10978 10978 10979 10980 10980 10981 10982 10982 10981
10886 10886 10885 10884 10883 10883 10882 10880 10879 10878 10878 10879 10879 10879 10879 10879 10879 10880 10879 10879 10878 10878 10879 10880 10881 10881 10881 10881 10882 10882 10883 10884 10884 10885 10885 10886 10887 10888 10889 10890 10891 10893 10895 10898 10900 10901 10902 10905 10907 10909 10911 10914 10916 10917 10919 10921 10924 10927 10929 10932 10934 10937 10940 10942 10945 10948 10952 10955 10958 10959 10961 10963 10966 10968 10970 10971 10973 10974 10976 10976 10977 10977 10978 10979 10979 10980 10981 10981
10884 10884 10883 10882 10881 10881 10880 10878 10877 10875 10875 10875 10876 10876 10876 10876 10876 10876 10877 10877 10876 10876 10876 10877 10878 10878 10877 10878 10879 10879 10879 10880 10881 10881 10882 10883 10884 10885 10886 10887 10888 10889 10891 10893 10896 10898 10899 10901 10903 10905 10906 10908 10910 10912 10915 10917 10920 10922 10925 10927 10930 10933 10935 10938 10941 10943 10946 10949 10953 10955 10957 10959 10962 10964 10966 10968 10970 10972 10973 10975 10975 10976 10976 10977 10978 10979 10980 10980
10882 10882 10881 10880 10879 10878 10877 10876 10875 10873 10872 10872 10873 10873 10873 10873 10872 10872 10873 10874 10874 10873 10873 10874 10875 10875 10874 10875 10876 10876 10876 10877 10877 10878 10879 10880 10881 10882 10883 10884 10885 10885 10887 10890 10893 10895 10896 10897 10899 10900 10902 10904 10906 10908 10910 10913 10915 10918 10920 10923 10925 10928 10931 10934 10937 10938 10941 10944 10947 10950 10953 10955 10957 10960 10962 10965 10967 10969 10971 10972 10973 10974 10974 10975 10976 10977 10978 10979
10880 10879 10878 10877 10876 10875 10875 10874 10872 10871 10870 10869 10870 10870 10870 10870 10869 10869 10869 10870 10871 10871 10871 10871 10872 10872 10871 10872 10873 10873 10873 10873 10874 10875 10876 10876 10877 10879 10880 10881 10881 10882 10883 10886 10889 10891 10892 10893 10894 10896 10898 10900 10902 10904 10906 10908 10911 10913 10916 10918 10921 10923 10927 10930 10931 10933 10935 10938 10942 10945 10949 10951 10953 10955 10958 10961 10963 10965 10967 10969 10971 10972 10972 10973 10974 10975 10976 10977
10877 10877 10876 10875 10873 10872 10871 10870 10869 10868 10867 10866 10866 10867 10867 10866 10866 10866 10866 10867 10867 10868 10868 10868 10868 10868 10869 10869 10869 10870 10869 10869 10871 10871 10872 10873 10874 10875 10876 10877 10878 10879 10880 10882 10885 10887 10888 10889 10890 10892 10894 10897 10898 10900 10902 10904 10907 10909 10911 10914 10917 10919 10922 10924 10926 10928 10931 10934 10936 10940 10944 10947 10949 10951 10954 10957 10959 10962 10964 10966 10968 10969 10970 10971 10972 10973 10974 10975
10875 10874 10873 10872 10870 10868 10867 10867 10866 10865 10864 10863 10863 10863 10863 10863 10862 10862 10863 10863 10864 10864 10864 10865 10866 10865 10865 10866 10866 10867 10866 10866 10867 10868 10869 10870 10871 10872 10872 10873 10874 10876 10877 10879 10881 10882 10883 10885 10887 10889 10891 10892 10894 10897 10898 10900 10902 10904 10907 10911 10913 10915 10917 10919 10921 10924 10927 10929 10931 10935 10939 10942 10944 10947 10949 10952 10955 10958 10960 10962 10965 10966 10968 10969 10970 10971 10972 10973
10872 10871 10870 10869 10868 10865 10864 10863 10862 10861 10860 10859 10859 10860 10860 10859 10859 10859 10859 10860 10860 10861 10860 10861 10863 10862 10861 10862 10863 10863 10863 10863 10864 10865 10866 10867 10868 10868 10869 10870 10871 10872 10874 10875 10877 10878 10879 10881 10883 10885 10887 10888 10890 10892 10894 10896 10898 10901 10904 10907 10908 10910 10912 10914 10916 10919 10921 10924 10926 10929 10933 10936 10939 10942 10944 10947 10950 10953 10956 10959 10961 10963 10965 10966 10967 10968 10969 10971
10868 10868 10867 10866 10865 10863 10860 10859 10859 10858 10857 10856 10855 10856 10856 10855 10855 10855 10856 10856 10857 10858 10857 10857 10859 10860 10858 10859 10860 10860 10860 10860 10860 10862 10863 10864 10864 10865 10866 10866 10868 10869 10870 10871 10873 10874 10875 10878 10880 10881 10883 10884 10886 10888 10890 10892 10894 10897 10900 10902 10903 10905 10908 10909 10911 10913 10915 10917 10920 10923 10927 10930 10933 10937 10940 10943 10946 10949 10952 10955 10957 10960 10962 10964 10965 10966 10967 10968
10865 10865 10864 10863 10861 10860 10857 10855 10855 10854 10853 10852 10851 10852 10851 10851 10850 10851 10852 10853 10854 10854 10854 10854 10854 10856 10855 10855 10857 10857 10856 10856 10857 10859 10860 10860 10861 10862 10862 10863 10864 10865 10867 10868 10869 10870 10872 10874 10876 10877 10879 10881 10883 10885 10886 10888 10890 10893 10895 10896 10898 10901 10903 10905 10907 10909 10911 10913 10916 10919 10922 10925 10928 10931 10934 10938 10941 10944 10947 10950 10953 10956 10958 10960 10962 10964 10964 10965
10862 10861 10861 10860 10858 10856 10855 10852 10851 10850 10849 10848 10848 10848 10847 10846 10846 10847 10847 10849 10850 10850 10850 10851 10851 10852 10852 10852 10853 10853 10853 10853 10854 10856 10856 10857 10857 10858 10859 10860 10861 10862 10864 10865 10865 10866 10868 10870 10872 10873 10876 10878 10879 10880 10882 10884 10887 10888 10890 10892 10894 10896 10899 10901 10903 10905 10907 10909 10912 10915 10918 10921 10923 10926 10930 10933 10936 10939 10942 10945 10948 10952 10954 10957 10959 10961 10962 10962
10858 10857 10857 10857 10854 10853 10851 10849 10847 10846 10845 10844 10844 10843 10843 10841 10841 10842 10843 10845 10846 10845 10846 10848 10848 10848 10848 10848 10849 10849 10850 10850 10851 10852 10853 10853 10854 10855 10856 10857 10858 10859 10861 10861 10862 10863 10865 10866 10868 10870 10872 10874 10875 10876 10878 10881 10882 10884 10886 10888 10890 10892 10895 10897 10899 10901 10903 10906 10909 10911 10914 10916 10919 10922 10925 10928 10931 10933 10936 10940 10943 10947 10950 10953 10955 10957 10958 10959
10854 10852 10853 10852 10851 10848 10847 10846 10844 10842 10841 10840 10840 10839 10838 10837 10837 10837 10838 10839 10840 10841 10842 10843 10844 10845 10845 10845 10846 10846 10846 10847 10848 10849 10850 10850 10851 10851 10853 10854 10855 10857 10857 10858 10859 10860 10861 10863 10865 10867 10869 10870 10871 10872 10875 10877 10878 10880 10882 10884 10886 10888 10890 10892 10894 10897 10899 10902 10904 10907 10909 10911 10915 10918 10919 10922 10925 10928 10930 10934 10937 10941 10945 10948 10951 10953 10955 10956
10850 10848 10847 10847 10846 10845 10843 10841 10840 10838 10837 10836 10835 10834 10833 10833 10832 10832 10833 10834 10836 10838 10838 10839 10839 10840 10841 10842 10842 10843 10843 10844 10845 10846 10847 10847 10848 10848 10850 10851 10852 10853 10854 10855 10856 10857 10858 10860 10862 10864 10865 10866 10867 10869 10871 10873 10874 10876 10878 10880 10882 10884 10885 10888 10890 10892 10895 10897 10899 10901 10904 10907 10910 10913 10913 10916 10919 10921 10925 10929 10932 10936 10939 10943 10946 10949 10951 10952
10846 10844 10842 10842 10841 10840 10838 10837 10836 10834 10833 10832 10831 10829 10829 10828 10827 10827 10828 10830 10833 10833 10833 10834 10834 10835 10837 10838 10839 10839 10840 10841 10841 10843 10844 10844 10845 10846 10847 10848 10850 10851 10852 10853 10853 10854 10855 10858 10859 10860 10862 10863 10864 10866 10868 10869 10871 10872 10874 10875 10877 10879 10881 10883 10885 10888 10890 10892 10893 10895 10899 10903 10906 10908 10909 10911 10913 10916 10919 10923 10927 10930 10934 10937 10941 10944 10946 10948
10842 10839 10837 10836 10835 10835 10833 10831 10830 10829 10828 10827 10826 10825 10824 10823 10821 10822 10824 10826 10828 10827 10827 10829 10829 10830 10832 10833 10834 10836 10836 10837 10838 10839 10840 10841 10842 10843 10844 10846 10847 10849 10850 10850 10850 10851 10853 10855 10856 10857 10859 10860 10862 10863 10864 10866 10867 10868 10869 10871 10873 10875 10877 10879 10881 10883 10885 10886 10888 10891 10896 10900 10902 10903 10904 10906 10909 10911 10914 10917 10921 10925 10929 10932 10936 10939 10942 10944
10837 10835 10833 10830 10829 10829 10827 10826 10824 10823 10823 10822 10821 10820 10819 10817 10817 10818 10820 10821 10821 10821 10822 10823 10824 10826 10827 10829 10830 10831 10832 10833 10834 10836 10837 10838 10839 10840 10841 10843 10845 10846 10847 10847 10848 10849 10850 10852 10853 10855 10856 10857 10859 10860 10861 10861 10863 10864 10865 10867 10869 10871 10873 10875 10877 10878 10880 10882 10884 10888 10893 10896 10897 10897 10899 10901 10904 10906 10909 10912 10916 10920 10924 10927 10931 10934 10937 10940
10832 10830 10828 10825 10823 10822 10821 10820 10818 10817 10816 10816 10816 10815 10813 10812 10813 10813 10814 10815 10815 10816 10816 10817 10819 10820 10822 10824 10825 10826 10828 10829 10830 10832 10834 10834 10835 10837 10838 10840 10842 10843 10844 10844 10846 10847 10848 10849 10851 10852 10853 10855 10856 10856 10857 10858 10860 10861 10862 10864 10865 10867 10869 10871 10872 10874 10876 10878 10881 10885 10888 10890 10891 10892 10894 10897 10899 10901 10904 10908 10911 10915 10919 10922 10925 10929 10932 10936
10826 10824 10822 10819 10817 10816 10815 10813 10811 10810 10810 10809 10809 10808 10806 10807 10808 10808 10808 10809 10810 10810 10811 10812 10813 10815 10817 10819 10821 10822 10823 10825 10826 10828 10829 10830 10832 10833 10835 10837 10839 10841 10841 10842 10843 10845 10846 10847 10848 10849 10850 10852 10853 10853 10854 10856 10857 10858 10859 10861 10862 10863 10865 10867 10868 10871 10873 10875 10878 10880 10882 10884 10886 10887 10890 10893 10895 10897 10900 10903 10906 10910 10914 10917 10920 10923 10927 10930
10821 10818 10816 10813 10811 10810 10808 10807 10805 10803 10803 10803 10802 10801 10800 10801 10802 10802 10802 10803 10804 10804 10805 10806 10807 10809 10811 10814 10816 10817 10819 10821 10822 10823 10825 10826 10828 10829 10831 10833 10835 10837 10838 10839 10841 10842 10843 10844 10844 10846 10848 10849 10849 10850 10852 10853 10854 10855 10857 10857 10858 10860 10862 10863 10864 10867 10869 10872 10874 10875 10877 10880 10880 10882 10886 10890 10892 10893 10895 10898 10901 10905 10908 10912 10915 10918 10921 10925
10817 10813 10810 10807 10805 10803 10801 10799 10798 10796 10795 10795 10794 10794 10794 10794 10795 10796 10796 10796 10797 10798 10799 10801 10802 10803 10805 10808 10811 10813 10815 10816 10818 10819 10820 10823 10824 10825 10828 10830 10832 10834 10836 10836 10837 10838 10840 10841 10842 10843 10845 10845 10846 10847 10849 10850 10851 10853 10853 10854 10855 10857 10858 10859 10861 10863 10866 10867 10869 10870 10873 10875 10875 10878 10882 10885 10886 10887 10889 10892 10895 10899 10903 10906 10909 10912 10915 10919
10812 10808 10804 10801 10799 10796 10794 10792 10790 10789 10788 10786 10786 10787 10787 10787 10788 10789 10789 10790 10791 10792 10794 10796 10797 10797 10799 10803 10806 10808 10810 10812 10813 10815 10817 10818 10819 10821 10824 10826 10829 10831 10832 10833 10834 10835 10836 10838 10839 10840 10841 10842 10843 10845 10846 10847 10849 10850 10850 10851 10853 10854 10854 10855 10858 10860 10861 10863 10864 10866 10868 10869 10871 10873 10877 10879 10880 10881 10883 10886 10889 10893 10897 10899 10903 10906 10909 10913
10807 10803 10799 10795 10792 10789 10786 10784 10782 10780 10779 10778 10778 10779 10778 10779 10781 10782 10782 10784 10785 10786 10788 10789 10790 10791 10793 10796 10799 10802 10804 10807 10809 10810 10813 10814 10815 10818 10820 10823 10825 10827 10828 10829 10831 10832 10833 10834 10836 10837 10838 10839 10840 10842 10844 10845 10846 10846 10847 10848 10850 10851 10851 10852 10855 10856 10858 10859 10860 10862 10864 10865 10867 10869 10872 10874 10876 10877 10879 10881 10883 10886 10890 10893 10896 10899 10903 10906
10800 10797 10793 10790 10786 10783 10779 10776 10773 10771 10770 10770 10770 10770 10770 10771 10773 10775 10776 10777 10778 10779 10781 10782 10784 10785 10786 10789 10793 10796 10798 10801 10803 10806 10808 10809 10811 10814 10817 10819 10822 10824 10825 10826 10827 10828 10828 10830 10832 10833 10835 10836 10838 10839 10841 10841 10842 10843 10844 10845 10846 10848 10848 10850 10852 10853 10854 10856 10857 10859 10860 10862 10864 10866 10867 10869 10870 10872 10875 10876 10878 10881 10884 10887 10890 10893 10897 10900
10793 10790 10786 10783 10779 10776 10773 10769 10765 10763 10761 10761 10760 10761 10762 10763 10764 10767 10769 10770 10770 10772 10773 10775 10777 10779 10780 10783 10786 10790 10792 10795 10798 10800 10802 10803 10806 10810 10813 10816 10818 10820 10820 10821 10823 10824 10825 10827 10829 10830 10832 10834 10835 10836 10837 10837 10838 10839 10841 10842 10844 10845 10846 10847 10849 10850 10851 10853 10854 10855 10856 10858 10860 10860 10861 10863 10865 10868 10869 10871 10872 10875 10878 10881 10884 10887 10890 10894
10785 10782 10779 10775 10772 10769 10765 10762 10758 10755 10754 10752 10752 10753 10754 10754 10756 10759 10761 10762 10763 10765 10766 10768 10770 10772 10774 10777 10780 10784 10786 10789 10792 10794 10796 10798 10801 10805 10809 10812 10814 10814 10815 10817 10818 10820 10822 10824 10825 10827 10829 10831 10831 10832 10833 10833 10834 10836 10838 10840 10842 10843 10843 10844 10846 10847 10848 10849 10850 10850 10851 10853 10855 10856 10857 10859 10861 10863 10865 10866 10867 10869 10872 10875 10878 10881 10884 10887
10778 10774 10771 10768 10764 10761 10758 10754 10751 10748 10746 10744 10744 10745 10745 10746 10747 10750 10753 10755 10756 10757 10759 10761 10762 10764 10767 10770 10774 10777 10780 10782 10785 10788 10790 10792 10796 10800 10804 10807 10808 10809 10810 10812 10815 10817 10819 10820 10822 10824 10826 10827 10828 10828 10828 10829 10832 10834 10836 10837 10839 10839 10840 10841 10842 10844 10844 10845 10846 10846 10847 10848 10850 10852 10854 10856 10857 10858 10860 10861 10862 10864 10866 10869 10872 10875 10878 10881
10771 10767 10763 10760 10757 10754 10750 10747 10744 10742 10739 10737 10737 10737 10737 10738 10739 10741 10744 10747 10749 10750 10751 10753 10755 10758 10761 10764 10767 10770 10773 10775 10777 10781 10784 10786 10790 10794 10798 10800 10801 10803 10806 10808 10811 10814 10815 10816 10818 10821 10822 10823 10823 10824 10825 10828 10830 10831 10832 10834 10835 10836 10837 10838 10839 10840 10841 10842 10843 10843 10843 10845 10847 10848 10850 10852 10853 10854 10855 10856 10857 10859 10861 10864 10867 10870 10872 10875
10765 10760 10755 10752 10749 10746 10743 10740 10737 10735 10732 10731 10730 10729 10729 10730 10732 10733 10736 10740 10741 10742 10743 10746 10748 10750 10753 10757 10760 10763 10765 10768 10770 10774 10777 10779 10783 10788 10792 10794 10795 10798 10801 10804 10807 10809 10810 10812 10814 10816 10817 10818 10819 10821 10823 10825 10826 10827 10828 10830 10831 10832 10833 10834 10835 10836 10838 10839 10839 10839 10840 10842 10844 10845 10847 10849 10850 10851 10851 10852 10853 10854 10856 10859 10862 10864 10867 10870
10757 10753 10748 10744 10741 10738 10735 10733 10730 10728 10726 10724 10723 10722 10722 10723 10724 10726 10729 10732 10733 10734 10735 10738 10741 10743 10746 10750 10752 10755 10758 10761 10764 10767 10769 10772 10777 10782 10785 10787 10790 10793 10796 10799 10802 10805 10806 10808 10810 10811 10813 10814 10816 10819 10820 10821 10822 10823 10825 10826 10827 10829 10830 10830 10831 10832 10834 10835 10835 10835 10837 10838 10840 10842 10845 10847 10847 10847 10848 10849 10849 10850 10852 10855 10857 10860 10862 10865
10749 10745 10740 10736 10733 10730 10727 10725 10723 10720 10718 10717 10717 10715 10715 10715 10716 10718 10721 10724 10725 10726 10728 10730 10733 10736 10739 10741 10744 10747 10750 10754 10757 10760 10762 10765 10770 10774 10778 10782 10784 10787 10790 10794 10798 10800 10801 10803 10805 10807 10808 10809 10813 10816 10816 10817 10818 10819 10821 10822 10823 10825 10826 10827 10828 10829 10830 10831 10831 10832 10834 10835 10836 10838 10842 10844 10844 10844 10845 10846 10846 10846 10848 10850 10853 10855 10858 10860
10740 10736 10732 10728 10724 10721 10718 10716 10714 10713 10711 10710 10710 10709 10708 10708 10710 10711 10713 10716 10718 10719 10720 10723 10725 10728 10730 10733 10736 10740 10744 10748 10750 10753 10756 10759 10763 10767 10771 10775 10779 10781 10785 10789 10792 10794 10796 10798 10801 10802 10803 10806 10809 10811 10812 10812 10813 10815 10817 10818 10820 10821 10822 10823 10825 10825 10825 10826 10827 10829 10831 10832 10832 10834 10837 10840 10841 10841 10842 10843 10843 10844 10845 10846 10849 10851 10853 10856
10730 10726 10722 10719 10715 10712 10709 10706 10705 10704 10703 10702 10702 10701 10701 10702 10703 10704 10706 10708 10711 10712 10713 10715 10717 10719 10722 10725 10729 10733 10738 10741 10743 10745 10749 10753 10757 10760 10764 10769 10773 10776 10780 10783 10786 10789 10790 10793 10795 10797 10798 10802 10805 10806 10807 10808 10809 10811 10813 10814 10815 10816 10817 10819 10821 10821 10822 10823 10824 10826 10828 10828 10828 10830 10832 10835 10836 10837 10838 10839 10840 10841 10842 10843 10845 10846 10848 10851
10721 10716 10712 10708 10705 10702 10699 10696 10694 10694 10693 10693 10693 10693 10693 10694 10695 10696 10698 10701 10704 10705 10706 10708 10709 10711 10713 10717 10722 10727 10730 10733 10735 10738 10742 10746 10750 10754 10758 10762 10767 10770 10773 10778 10781 10783 10785 10787 10790 10792 10794 10798 10800 10802 10803 10804 10806 10808 10809 10810 10811 10812 10813 10815 10817 10818 10819 10820 10821 10823 10824 10823 10822 10824 10827 10830 10832 10833 10834 10836 10837 10838 10838 10839 10840 10842 10843 10846
10710 10705 10701 10697 10693 10690 10688 10686 10684 10683 10683 10683 10684 10684 10684 10685 10686 10687 10690 10693 10695 10697 10698 10700 10702 10703 10705 10709 10714 10719 10722 10725 10728 10731 10735 10739 10743 10747 10751 10755 10760 10763 10767 10771 10774 10777 10779 10782 10786 10788 10790 10793 10795 10797 10799 10801 10803 10805 10804 10805 10807 10808 10809 10811 10812 10814 10815 10816 10817 10817 10818 10817 10818 10821 10823 10825 10827 10829 10831 10832 10833 10834 10834 10835 10836 10837 10839 10841